Wind_Speed
7 7 6 6 6 6 5 5 5 5 5 5 5 5 5 5 5 5 5 6 6 5 5 5 4 4 3 3 4 4 4 4 4 4 4 4 5 5 5 5 5 6 6
8 8 8 8 7 7 7 6 6 6 5 5 6 6 6 6 6 6 6 6 6 6 6 6 6 5 4 4 4 3 3 4 4 4 4 4 4 4 5 5 6 6 7
9 10 9 9 9 9 8 8 7 7 7 7 7 7 7 7 7 7 7 7 7 7 6 7 7 7 6 5 5 5 4 5 5 5 5 5 5 6 6 7 7 7 8
11 11 10 10 10 10 9 9 9 8 8 8 8 8 8 8 8 7 7 7 7 8 8 7 8 7 8 7 7 7 7 6 6 6 6 7 7 7 7 8 8 9 9
13 12 11 11 11 11 10 10 10 9 9 9 8 8 8 8 8 8 7 8 8 8 8 8 8 8 8 9 9 9 9 8 8 8 8 8 8 9 9 9 10 10 10
15 14 13 13 12 12 12 11 11 11 10 10 9 9 10 9 9 9 8 7 8 8 8 8 8 8 8 9 9 10 10 10 10 10 10 10 10 10 10 10 11 11 11
17 15 15 14 13 13 13 13 12 12 12 11 10 10 10 10 10 10 9 9 8 8 8 8 8 9 9 9 9 10 10 11 11 12 12 11 12 12 12 12 12 12 12
18 17 16 15 15 14 14 14 14 13 13 12 12 11 11 11 11 10 10 10 10 9 9 8 9 9 10 10 10 11 11 11 12 13 13 13 13 13 14 14 14 13 13
18 17 16 16 15 14 14 15 15 15 14 14 13 12 12 11 11 11 11 12 11 11 10 10 11 11 11 11 12 12 12 12 13 14 15 15 15 15 15 15 15 15 15
18 17 17 16 16 15 15 15 15 15 15 15 14 14 13 13 12 12 12 12 12 12 12 12 12 12 12 13 13 13 13 14 14 15 16 15 16 16 16 16 16 16 16
18 18 17 17 17 16 16 16 16 16 16 16 16 15 15 14 14 13 13 13 13 12 12 12 13 13 14 14 14 14 15 15 15 16 15 16 16 16 17 17 17 17 17
19 19 18 17 17 16 17 17 16 16 17 16 16 16 16 16 15 14 14 14 13 13 13 14 14 14 15 15 14 15 15 16 16 15 15 15 15 16 17 17 17 18 18
19 18 18 18 17 17 17 17 16 16 16 16 15 16 16 16 16 16 16 15 14 13 14 14 14 15 15 15 15 16 16 16 16 17 16 16 17 17 17 17 17 17 18
20 19 19 19 18 18 17 17 17 16 16 16 15 16 16 16 17 16 16 15 14 14 15 15 15 15 16 16 17 17 17 17 18 18 18 18 18 18 18 18 18 18 18
21 20 20 19 18 18 18 18 18 17 16 16 16 17 17 17 17 16 16 16 16 16 16 15 16 16 16 16 17 17 18 18 19 19 19 19 19 20 20 20 20 20 20
20 19 19 19 19 19 19 19 19 18 17 17 17 17 17 17 17 18 18 17 17 17 17 16 17 17 18 18 18 19 19 19 19 19 20 20 21 21 22 22 21 21 21
21 20 20 19 20 20 20 20 19 19 18 18 17 18 18 18 18 19 19 19 19 18 18 18 18 18 18 19 19 20 20 20 20 20 21 21 21 22 22 22 22 22 22
22 22 21 20 20 20 21 20 20 19 19 18 18 19 20 20 20 20 20 19 19 19 19 19 19 19 19 20 20 21 21 21 21 21 21 21 22 22 23 23 23 23 24
22 22 22 22 21 21 21 21 21 20 19 19 20 20 21 22 21 21 21 20 20 20 20 20 20 19 19 20 20 21 21 22 23 23 23 24 24 24 24 24 24 24 25
22 22 22 22 22 22 22 21 21 21 20 20 20 21 22 23 22 22 21 21 20 20 20 20 20 20 20 20 20 21 21 22 23 24 24 25 25 25 26 26 26 26 27
23 22 22 22 23 22 22 22 22 22 22 22 21 22 22 22 23 23 22 22 21 21 20 21 21 21 21 21 21 21 22 22 23 24 25 25 25 26 26 26 26 27 27
24 23 23 23 23 23 24 23 22 22 22 22 22 21 22 22 23 23 23 23 23 22 22 22 22 23 23 23 23 24 24 24 25 25 26 26 26 26 27 27 28 28 28
24 24 24 24 23 23 23 23 23 22 22 22 22 22 22 23 23 24 24 24 24 24 24 24 24 25 24 24 25 25 26 27 27 27 27 28 28 28 28 28 29 30 30
25 24 24 24 24 23 23 23 23 23 23 23 23 23 23 23 23 23 24 25 25 25 25 25 26 26 26 26 27 28 28 28 29 29 29 29 29 30 30 30 31 32 33
25 25 25 25 25 24 23 23 23 23 22 22 22 22 22 23 23 23 24 25 26 26 26 27 27 27 27 27 28 29 29 30 30 30 30 31 31 32 32 33 33 33 34
25 25 25 25 25 25 24 24 23 23 23 23 22 23 23 23 23 24 24 25 26 26 27 27 27 28 28 29 29 30 30 31 31 31 31 32 32 33 33 34 34 35 35
Wind_Direction
257 259 257 259 262 266 273 274 275 270 267 264 260 259 256 255 259 262 256 260 262 260 256 253 251 256 254 248 249 252 261 272 284 288 285 279 280 284 287 295 301 306 309
261 262 260 259 258 263 266 270 271 269 269 266 263 264 268 266 265 265 264 265 261 258 257 258 258 256 253 256 265 266 279 282 285 292 289 286 284 289 295 298 301 306 304
260 262 260 258 257 260 265 269 270 270 273 271 268 266 271 270 266 264 265 268 259 251 253 258 262 261 258 264 275 276 281 284 286 295 293 282 279 286 291 295 300 302 300
258 257 254 254 257 259 262 265 269 271 271 269 268 269 274 273 269 268 268 269 261 253 253 258 261 265 266 272 279 282 282 286 288 289 292 287 285 287 288 290 296 300 300
254 253 252 253 255 256 258 262 267 270 270 268 267 269 274 274 271 267 271 271 265 261 258 261 262 264 268 273 278 284 284 288 292 291 292 293 290 289 289 291 295 299 299
251 253 255 254 256 258 259 260 264 266 267 265 268 271 273 273 271 270 271 273 270 267 266 265 265 266 271 276 280 284 286 289 288 288 289 291 291 290 289 291 293 296 298
247 253 258 257 256 258 257 257 261 263 263 263 267 270 271 273 271 270 268 269 273 274 272 270 268 272 276 280 286 289 289 292 288 285 287 289 288 289 288 288 289 291 293
245 250 255 255 255 257 255 255 257 259 259 260 265 268 270 273 270 269 268 268 269 271 273 272 271 277 283 284 286 288 290 291 291 287 287 286 287 285 285 286 287 289 290
244 248 252 254 254 255 254 253 255 255 256 258 264 267 268 272 271 269 269 271 271 270 271 274 276 278 281 283 283 283 285 288 288 289 288 288 286 285 281 283 286 287 287
240 244 249 250 252 254 253 251 253 255 257 260 262 264 265 268 269 269 271 273 274 273 272 277 280 282 284 284 283 283 286 289 291 292 292 290 287 284 283 282 284 285 286
239 241 246 249 250 251 250 253 255 257 260 261 260 260 262 264 268 271 273 274 272 273 270 274 278 282 285 284 282 282 286 289 292 293 293 293 286 283 283 283 283 283 285
236 239 243 247 248 250 253 256 257 260 262 262 260 260 262 262 267 267 268 271 271 274 277 277 277 280 283 283 282 282 285 288 291 293 295 297 290 288 287 285 282 281 281
235 239 241 244 247 250 252 255 260 261 261 261 260 262 265 266 266 264 264 267 270 274 278 279 279 278 280 281 282 284 286 287 289 291 293 294 294 292 290 286 284 282 280
235 238 239 240 245 249 252 255 258 260 261 261 260 265 268 267 266 266 266 269 272 275 278 279 279 279 279 281 282 283 285 287 289 288 290 291 293 293 292 289 286 285 284
235 238 238 240 246 251 252 254 256 257 262 264 264 265 266 266 266 267 267 268 271 275 276 277 278 279 280 282 284 285 286 287 288 289 289 289 291 292 291 290 288 287 285
236 237 237 240 246 249 251 253 253 255 260 265 266 267 265 263 265 269 269 269 270 272 274 275 276 278 279 283 286 286 286 286 286 287 288 289 290 291 291 291 287 286 284
234 236 238 241 244 246 249 252 253 256 261 266 267 268 265 263 265 270 270 270 269 269 271 273 276 278 281 282 284 284 285 285 285 286 287 289 290 289 289 289 287 284 281
235 239 241 243 243 244 247 251 254 257 261 266 270 269 267 267 268 271 270 269 268 268 270 271 273 277 280 282 284 285 285 286 286 286 287 288 289 289 290 288 287 284 283
237 239 241 242 243 245 247 251 255 259 261 265 267 268 268 269 271 271 269 267 268 269 271 272 272 276 278 281 283 285 285 286 285 285 286 287 288 289 289 287 285 285 286
238 238 239 240 244 245 248 252 256 259 262 266 268 268 268 268 269 270 267 266 267 269 271 272 273 275 278 280 282 285 286 287 286 286 286 285 286 287 287 286 285 285 285
237 238 241 243 245 247 250 255 257 259 262 265 267 267 267 268 267 266 264 263 264 267 269 272 274 276 279 280 281 282 284 286 287 289 288 286 286 286 286 286 286 286 285
236 240 242 244 246 249 252 255 257 258 261 264 267 267 267 267 267 265 263 261 263 266 269 271 274 277 278 280 281 283 284 286 287 287 288 289 289 289 288 289 289 288 286
238 241 242 244 248 251 253 253 255 259 262 265 266 266 265 267 266 266 264 263 265 266 268 270 273 275 276 279 281 283 285 287 288 289 289 289 290 289 289 289 289 289 288
238 240 242 244 248 251 251 253 257 261 264 266 266 267 267 268 267 266 267 267 266 266 267 269 272 275 276 278 280 283 284 285 287 289 289 290 290 291 290 289 289 289 289
239 241 243 244 246 249 251 255 260 262 264 265 267 269 270 269 270 269 268 268 267 266 268 269 272 275 277 279 281 282 284 286 287 289 289 290 291 291 291 290 290 290 290
239 240 243 246 248 249 250 254 257 259 262 264 266 269 270 272 273 273 271 271 272 271 269 270 273 275 277 279 281 282 284 285 287 289 290 291 291 292 292 291 291 291 290
Height
5904 5904 5904 5905 5905 5905 5905 5905 5905 5905 5905 5905 5904 5904 5904 5905 5905 5905 5905 5905 5905 5905 5905 5906 5905 5905 5905 5905 5905 5905 5905 5904 5904 5903 5903 5903 5903 5903 5903 5902 5902 5901 5900
5902 5902 5903 5903 5904 5904 5904 5904 5904 5904 5904 5904 5904 5904 5904 5904 5904 5904 5904 5904 5904 5904 5904 5905 5905 5905 5905 5905 5904 5904 5904 5904 5903 5903 5902 5902 5903 5902 5902 5901 5901 5900 5900
5900 5901 5901 5902 5902 5903 5903 5903 5903 5903 5903 5903 5903 5903 5903 5903 5903 5903 5903 5903 5903 5903 5903 5903 5904 5904 5904 5904 5904 5904 5904 5903 5903 5902 5902 5902 5902 5901 5901 5900 5900 5899 5899
5899 5899 5899 5900 5901 5901 5901 5902 5902 5902 5902 5902 5902 5902 5901 5901 5902 5902 5902 5902 5901 5901 5902 5902 5902 5903 5903 5903 5903 5903 5903 5903 5902 5902 5901 5901 5900 5900 5900 5899 5899 5898 5897
5897 5897 5898 5898 5899 5899 5900 5900 5900 5900 5900 5900 5900 5901 5901 5900 5900 5900 5900 5900 5900 5900 5900 5901 5901 5901 5902 5902 5902 5902 5902 5902 5901 5901 5900 5899 5899 5898 5898 5898 5897 5896 5895
5894 5895 5895 5896 5897 5897 5898 5898 5899 5899 5899 5899 5899 5899 5899 5899 5899 5899 5899 5899 5899 5899 5899 5899 5899 5900 5900 5900 5900 5900 5900 5900 5899 5899 5898 5898 5897 5896 5896 5895 5895 5894 5893
5891 5892 5892 5893 5894 5895 5895 5896 5896 5897 5897 5897 5897 5897 5897 5897 5897 5897 5897 5897 5897 5897 5898 5898 5898 5898 5899 5899 5898 5898 5898 5898 5897 5897 5896 5895 5895 5894 5893 5893 5892 5891 5890
5888 5889 5889 5890 5891 5892 5892 5893 5894 5895 5895 5895 5896 5895 5895 5895 5896 5896 5896 5896 5896 5896 5896 5896 5896 5896 5897 5897 5896 5896 5896 5895 5895 5894 5893 5892 5892 5891 5890 5890 5889 5888 5887
5884 5885 5886 5887 5888 5889 5890 5890 5891 5892 5892 5893 5893 5893 5893 5894 5894 5894 5894 5894 5894 5894 5894 5894 5894 5894 5894 5894 5894 5893 5893 5892 5892 5891 5890 5889 5888 5887 5887 5886 5885 5885 5884
5880 5882 5883 5884 5885 5885 5886 5887 5888 5889 5890 5890 5891 5891 5891 5892 5892 5892 5892 5892 5892 5892 5892 5892 5892 5892 5891 5891 5891 5890 5890 5889 5888 5887 5886 5885 5884 5883 5883 5882 5882 5881 5880
5876 5878 5879 5880 5881 5882 5883 5884 5885 5886 5887 5887 5888 5888 5889 5889 5889 5889 5889 5889 5889 5889 5889 5889 5889 5889 5888 5888 5888 5887 5886 5886 5885 5883 5882 5881 5880 5879 5879 5878 5877 5876 5876
5872 5874 5875 5876 5878 5879 5879 5880 5881 5882 5883 5883 5884 5885 5885 5885 5886 5886 5886 5886 5886 5886 5886 5886 5886 5885 5885 5884 5884 5883 5883 5882 5881 5880 5879 5877 5876 5876 5874 5874 5873 5872 5871
5868 5870 5871 5873 5874 5875 5876 5877 5878 5878 5879 5880 5881 5881 5881 5882 5882 5883 5883 5883 5883 5883 5883 5883 5882 5882 5881 5881 5880 5880 5879 5878 5877 5876 5875 5874 5873 5871 5870 5869 5868 5867 5866
5864 5866 5867 5869 5871 5872 5873 5874 5875 5875 5876 5876 5877 5878 5878 5879 5879 5879 5880 5880 5880 5880 5879 5879 5878 5878 5878 5877 5876 5875 5875 5874 5873 5872 5871 5870 5869 5867 5866 5865 5864 5862 5861
5859 5861 5863 5865 5867 5868 5869 5870 5871 5872 5872 5873 5874 5874 5875 5875 5875 5876 5876 5876 5876 5875 5875 5875 5874 5874 5874 5873 5872 5871 5870 5869 5868 5867 5866 5865 5864 5862 5861 5860 5859 5857 5856
5854 5857 5858 5860 5862 5864 5865 5866 5867 5868 5869 5870 5870 5870 5871 5871 5871 5872 5872 5872 5871 5871 5871 5871 5870 5870 5869 5869 5868 5867 5865 5864 5863 5862 5861 5860 5859 5857 5856 5855 5853 5852 5851
5850 5852 5854 5856 5858 5859 5860 5862 5863 5864 5865 5866 5866 5866 5866 5867 5867 5867 5867 5867 5867 5867 5867 5866 5865 5865 5864 5864 5862 5861 5860 5859 5858 5857 5856 5855 5853 5852 5851 5849 5848 5846 5845
5846 5848 5850 5852 5853 5854 5856 5857 5859 5860 5861 5861 5862 5862 5862 5862 5862 5862 5862 5862 5862 5862 5862 5861 5861 5860 5859 5858 5857 5856 5855 5854 5853 5852 5851 5849 5848 5846 5845 5843 5842 5840 5839
5841 5843 5845 5847 5848 5850 5851 5853 5854 5855 5856 5856 5857 5857 5857 5857 5857 5857 5857 5857 5857 5857 5856 5856 5855 5855 5854 5853 5852 5851 5850 5848 5847 5846 5845 5843 5842 5841 5839 5837 5835 5834 5832
5836 5838 5840 5842 5843 5845 5847 5848 5849 5850 5851 5851 5852 5852 5852 5852 5852 5851 5851 5851 5852 5851 5851 5851 5850 5849 5848 5847 5846 5845 5844 5842 5841 5840 5838 5837 5835 5834 5831 5830 5828 5826 5825
5830 5832 5834 5836 5838 5840 5841 5843 5844 5844 5845 5846 5846 5846 5846 5846 5846 5845 5845 5846 5846 5846 5846 5846 5845 5844 5843 5842 5841 5839 5838 5836 5835 5833 5832 5830 5828 5826 5825 5823 5821 5819 5817
5824 5827 5829 5831 5832 5834 5836 5837 5838 5839 5839 5840 5840 5840 5840 5839 5839 5839 5839 5839 5839 5840 5840 5839 5839 5838 5837 5836 5835 5833 5832 5830 5829 5827 5825 5823 5821 5819 5817 5816 5814 5812 5810
5819 5821 5823 5825 5826 5828 5829 5831 5832 5833 5833 5834 5834 5834 5833 5833 5833 5833 5832 5833 5833 5833 5833 5832 5832 5831 5830 5829 5828 5827 5825 5823 5821 5820 5818 5816 5814 5812 5810 5808 5806 5804 5802
5813 5815 5817 5819 5820 5822 5824 5825 5826 5827 5828 5828 5827 5827 5827 5827 5827 5826 5826 5826 5825 5826 5825 5825 5825 5824 5823 5822 5821 5819 5818 5816 5814 5812 5810 5808 5806 5804 5802 5800 5797 5795 5793
5807 5809 5811 5813 5814 5816 5818 5819 5820 5821 5822 5822 5822 5821 5821 5821 5821 5820 5819 5819 5819 5819 5819 5818 5817 5816 5815 5814 5813 5811 5810 5808 5806 5804 5802 5800 5798 5796 5793 5791 5789 5786 5784
5801 5803 5804 5806 5808 5810 5811 5813 5814 5815 5815 5816 5815 5815 5815 5815 5814 5813 5813 5812 5812 5811 5811 5810 5810 5809 5808 5806 5805 5803 5802 5800 5798 5796 5794 5791 5789 5787 5784 5782 5780 5777 5775